RH
27 24 16 18 28 34 38 40 42 47 51 48 47 41 46 44 40 40 39 36 33 31 31 29 25 24 27 27 24 22 17 16 14 12 15 21 21 18 19 22 21 22 22 22 22 20 21 21 22
30 26 17 22 33 39 36 36 38 40 45 45 43 42 49 46 42 41 42 38 36 34 32 30 27 24 28 29 26 21 16 14 12 12 17 27 26 20 21 20 20 22 22 22 16 22 21 21 25
38 28 19 27 36 37 35 36 41 35 38 44 40 41 49 47 44 42 44 42 38 35 34 32 29 29 27 27 21 18 15 13 12 14 17 28 21 20 21 20 19 19 19 15 15 22 21 18 20
47 32 23 22 31 35 34 38 33 33 35 43 39 41 47 44 43 43 45 43 39 36 35 34 31 32 28 22 19 17 15 13 13 16 18 27 28 24 21 22 19 18 17 15 14 17 15 15 17
48 41 28 21 22 29 34 30 31 34 36 40 38 36 45 45 44 45 45 44 41 38 37 35 34 33 28 20 17 15 14 12 12 19 19 22 26 21 21 18 18 16 15 15 15 16 14 14 16
44 47 38 26 20 22 30 32 33 35 40 42 40 38 41 42 45 45 45 45 43 39 38 37 35 36 32 27 19 15 13 12 11 15 19 19 18 20 19 16 14 14 14 14 16 17 16 15 15
42 49 46 34 26 22 28 33 34 33 42 42 40 41 41 40 43 43 45 45 44 40 38 40 37 37 38 34 29 22 17 13 10 10 11 12 14 14 14 16 14 14 15 20 21 20 18 18 17
42 46 49 42 28 24 27 33 35 33 42 42 46 49 45 39 41 40 42 43 42 39 37 39 42 39 39 37 33 29 25 21 17 12 14 12 12 13 12 12 13 14 17 22 20 20 18 16 17
46 45 53 50 32 26 29 36 36 35 36 50 53 49 43 39 39 39 41 40 40 37 37 38 42 43 40 38 36 34 31 27 23 19 18 15 14 14 13 13 14 15 17 18 18 24 19 17 16
49 47 46 53 39 30 32 35 37 36 34 43 47 45 43 43 42 42 43 40 38 36 37 36 40 43 41 38 37 35 34 30 27 24 22 20 19 19 18 19 20 21 21 22 22 22 22 21 20
49 46 44 52 50 37 32 32 36 37 37 42 43 38 42 44 43 43 41 39 35 36 36 35 37 43 41 38 38 38 35 33 31 28 25 24 23 23 23 23 24 24 24 25 25 26 25 24 22
49 45 44 49 52 45 32 31 33 32 32 36 38 35 41 43 42 41 40 38 36 35 35 36 38 39 39 39 37 38 36 33 30 29 28 28 28 28 28 29 30 30 30 30 30 30 30 29 29
52 46 46 48 52 54 41 29 30 28 28 32 36 34 39 39 40 38 38 38 36 34 34 35 37 37 38 39 37 33 32 30 28 28 28 29 30 30 31 31 31 31 32 33 34 33 32 31 31
52 50 47 48 51 53 51 34 32 23 25 28 30 31 34 37 37 37 38 37 36 34 33 34 36 37 38 36 30 28 28 28 26 25 23 24 25 27 28 28 29 30 32 32 32 33 33 32 32
57 53 50 45 47 53 51 39 24 23 22 24 27 29 28 32 35 35 37 36 34 31 31 31 35 35 32 26 25 26 26 27 27 27 27 25 24 24 25 26 28 31 34 35 34 33 34 35 35
58 55 52 44 46 49 47 31 19 20 22 24 27 26 27 30 31 33 34 34 31 30 32 31 31 28 25 26 27 29 29 29 29 30 30 32 34 36 36 35 35 36 38 39 39 40 40 40 41
58 56 51 47 46 45 44 35 19 23 24 26 28 27 26 28 30 30 30 28 28 26 28 25 23 21 24 27 29 30 30 30 31 32 33 35 37 39 40 42 42 43 44 45 47 47 50 49 49
60 52 52 49 50 44 43 35 23 26 26 28 29 28 29 28 29 29 27 24 23 24 25 28 24 24 24 26 28 29 30 31 34 36 38 40 41 43 46 48 49 51 51 51 52 52 54 54 53
59 56 55 51 51 43 43 36 24 27 26 26 28 30 32 30 29 24 19 20 25 29 29 28 25 24 24 25 26 28 30 34 38 40 42 44 47 49 50 51 52 52 50 48 48 49 48 47 49
56 59 57 56 51 43 45 39 25 28 27 27 29 30 30 26 22 21 24 26 30 32 30 27 26 26 25 25 25 26 29 32 34 37 39 41 43 44 43 42 42 41 40 40 41 44 46 47 49
66 61 64 61 55 47 44 41 25 23 25 28 29 28 26 25 25 26 28 31 33 31 29 28 28 27 25 24 25 27 30 34 35 36 36 36 36 36 37 37 37 38 39 39 41 43 45 49 49
76 64 68 63 62 55 45 50 31 23 27 30 29 29 29 28 31 30 33 33 32 32 31 30 28 27 26 26 27 29 33 33 34 35 36 36 36 36 37 38 38 36 33 32 32 33 34 36 38
73 73 71 66 59 52 49 50 33 24 29 29 28 31 32 31 32 33 34 34 34 33 31 30 27 26 27 28 30 33 34 36 37 37 36 35 35 34 31 29 28 29 29 29 29 29 30 31 31
79 76 68 65 59 59 49 44 35 26 26 27 29 33 34 33 33 34 34 34 33 33 31 29 28 29 32 34 35 36 37 36 35 35 35 33 30 30 30 31 32 33 33 32 32 32 32 32 33
80 79 73 71 65 57 45 44 32 22 26 28 32 34 36 35 33 33 34 33 33 33 32 32 35 38 39 39 38 38 38 38 37 34 30 29 30 31 32 33 33 33 33 32 32 31 31 32 32
82 75 68 66 63 52 46 42 28 22 23 23 29 31 34 35 35 36 35 35 35 35 37 40 42 42 42 43 42 41 38 35 32 31 31 33 34 34 34 33 33 32 30 28 26 25 25 25 27
78 75 64 64 58 58 50 38 29 26 27 28 30 31 35 36 36 36 35 37 40 42 43 44 43 43 45 46 43 38 34 34 35 35 36 37 38 36 32 29 26 24 22 21 19 19 19 20 23
70 68 67 66 64 60 50 42 38 30 31 32 32 33 36 38 38 39 41 44 46 46 45 43 43 47 50 46 41 37 37 38 39 40 40 37 33 29 26 23 21 20 19 19 19 19 19 19 22
68 62 60 60 62 58 54 41 32 30 30 37 40 40 40 42 44 46 48 48 45 43 46 47 51 52 47 41 40 40 41 42 39 36 32 28 26 24 22 22 21 21 21 21 19 18 18 18 18
64 60 58 63 59 56 51 41 29 34 36 41 42 43 46 49 50 47 44 44 45 49 54 51 48 45 43 43 42 44 42 39 37 32 28 26 25 24 24 23 22 22 22 21 19 18 18 20 21